Regional Weather Roundup
Issued by NWS

Home | Current Version | Previous Version | Graphics & Text | Print | Product List | Glossary On
Versions: 1 2 3 4 5 6 7 8 9 10 11 12 13 14 15 16 17 18 19 20 21 22 23 24 25 26 27 28 29 30 31 32 33 34 35 36 37 38 39 40 41 42 43 44 45 46 47 48 49 50
775
ASUS45 KABQ 172001
RWRNM
NEW MEXICO REGIONAL WEATHER ROUNDUP
NATIONAL WEATHER SERVICE ALBUQUERQUE NM
100 PM MST WED JAN 17 2018

NOTE: "FAIR" MEANS FEW OR NO CLOUDS BELOW 12,000 FEET AGL WITH NO
       SIGNIFICANT WEATHER OR OBSTRUCTIONS TO VISION.

      THIS PRODUCT IS RELEASED AS TWO VERSIONS.  ONE VERSION NEAR
      THE TOP OF THE HOUR CONTAINING PRELIMINARY DATA FROM ALBUQUERQUE
      AND OTHER STATIONS.  A FINAL VERSION WITH ADDITIONAL DATA IS
      ISSUED ABOUT 10 MINUTES AFTER THE HOUR.

NMZ501-503-504-510>518-172100-
NORTHWEST PLATEAU/NORTHCENTRAL MOUNTAINS

CITY           SKY/WX    TMP DP  RH WIND       PRES   REMARKS
FARMINGTON     FAIR      40  20  44 SW8       30.33F WCI  34
LOS ALAMOS     FAIR      36  15  41 SE6       30.29F WCI  31
SANTA FE       FAIR      39  15  37 VRB3      30.28F
TAOS           FAIR      41  13  31 N6G17     30.30F
ANGEL FIRE     FAIR      47  -5  11 N8        30.25F

$$
NMZ402-403-502-505>509-172100-
WESTCENTRAL MOUNTAINS/SOUTHWEST MOUNTAINS

CITY           SKY/WX    TMP DP  RH WIND       PRES   REMARKS
GALLUP         FAIR      45  20  36 VRB3      30.31F
GRANTS         CLOUDY    38  17  42 N3        30.33F
SILVER CITY    CLOUDY    38  14  37 SE5       30.31F WCI  34

$$
NMZ407-409-411-412-172100-
SOUTHERN DESERTS

CITY           SKY/WX    TMP DP  RH WIND       PRES   REMARKS
DEMING         FAIR      40  13  33 E10       30.35F WCI  33
LAS CRUCES     PTSUNNY   38  12  34 SE3       30.37F
HOLLOMAN AFB   FAIR      40  10  29 CALM      30.40F
ALAMOGORDO     FAIR      37   9  30 NW7       30.38F WCI  32
T OR C         FAIR      41  11  29 VRB3      30.33F

$$
NMZ519>523-172100-
CENTRAL VALLEYS/CENTRAL HIGHLANDS

CITY           SKY/WX    TMP DP  RH WIND       PRES   REMARKS
ALBUQUERQUE    PTSUNNY   36  14  40 SW5       30.34F WCI  32
DOUBLE EAGLE   PTSUNNY   34  14  44 SW8       30.33  WCI  27
MORIARTY ARPT  FAIR      45  16  30 N3        30.29F
CLINES CORNERS FAIR      40  12  32 NW20G31   30.25F WCI  30
BELEN          FAIR      35  11  37 CALM      30.34F
SOCORRO        FAIR      35  11  37 CALM      30.35F

$$
NMZ524>526-539-540-172100-
SOUTHCENTRAL MOUNTAINS

CITY           SKY/WX    TMP DP  RH WIND       PRES   REMARKS
RUIDOSO        FAIR      37   9  30 NW9       30.30F WCI  31

$$
NMZ527>531-172100-
NORTHEAST HIGHLANDS/NORTHEAST PLAINS

CITY           SKY/WX    TMP DP  RH WIND       PRES   REMARKS
LAS VEGAS      FAIR      48   6  18 E7        30.23F
RATON          FAIR     N/A N/A N/A E8        30.21F
CLAYTON        FAIR      47  17  30 S7        30.23F

$$
NMZ532>537-172100-
EASTCENTRAL PLAINS

CITY           SKY/WX    TMP DP  RH WIND       PRES   REMARKS
SANTA ROSA     FAIR      42   9  26 E21       30.25F
TUCUMCARI      FAIR      44   9  23 SW10G18   30.28F
CANNON AFB     FAIR      41  15  35 SW14      30.33F
CLOVIS AIRPORT FAIR      42  16  34 SW17      30.33F

$$
NMZ028-029-538-172100-
SOUTHEAST PLAINS

CITY           SKY/WX    TMP DP  RH WIND       PRES   REMARKS
ROSWELL        FAIR      40   9  28 S10       30.36F WCI  33
ARTESIA        FAIR      39   9  28 SE12G18   30.38F WCI  32
CARLSBAD       FAIR      37   5  26 SE12      30.39F WCI  29
HOBBS          PTSUNNY   37  -8  14 S12       30.39F WCI  30


$$




USA.gov is the U.S. government's official web portal to all federal, state and local government web resources and services.